TimePST,TemperatureF,Dew PointF,Humidity,Sea Level PressureIn,VisibilityMPH,Wind Direction,Wind SpeedMPH,Gust SpeedMPH,PrecipitationIn,Events,Conditions,WindDirDegrees,DateUTC
12:30 AM,-9999,-9999,N/A,-9999,-9999.0,North,-9999.0,-,N/A,,Unknown,0,2013-01-25 08:30:00
12:45 AM,-9999,-9999,N/A,-9999,-9999.0,North,-9999.0,-,N/A,,Unknown,0,2013-01-25 08:45:00
12:54 AM,61.0,57.9,90,30.12,-9999.0,NE,5.8,-,0.00,,Mostly Cloudy,50,2013-01-25 08:54:00
1:54 AM,63.0,57.0,81,30.12,-9999.0,ENE,8.1,-,N/A,,Overcast,60,2013-01-25 09:54:00
2:30 AM,-9999,-9999,N/A,-9999,-9999.0,North,-9999.0,-,N/A,,Unknown,0,2013-01-25 10:30:00
2:54 AM,63.0,57.0,81,30.09,-9999.0,ENE,13.8,-,N/A,,Partly Cloudy,60,2013-01-25 10:54:00
3:54 AM,63.0,57.0,81,30.07,-9999.0,ENE,11.5,-,N/A,,Mostly Cloudy,60,2013-01-25 11:54:00
4:54 AM,64.0,57.9,80,30.06,-9999.0,ENE,13.8,-,N/A,,Overcast,60,2013-01-25 12:54:00
5:35 AM,64.4,57.2,77,30.05,6.0,ENE,13.8,21.9,0.00,Rain,Light Rain,70,2013-01-25 13:35:00
5:54 AM,63.0,57.0,81,30.06,6.0,East,17.3,23.0,0.01,Rain,Light Rain,80,2013-01-25 13:54:00
6:17 AM,64.4,59.0,83,30.07,6.0,ENE,17.3,-,0.00,Rain,Light Rain,70,2013-01-25 14:17:00
6:54 AM,64.0,49.8,60,30.07,7.0,East,17.3,-,0.00,,Overcast,80,2013-01-25 14:54:00
7:03 AM,64.4,50.0,59,30.07,7.0,ENE,9.2,21.9,0.00,,Overcast,70,2013-01-25 15:03:00
7:54 AM,64.0,49.8,60,30.08,7.0,East,17.3,27.6,0.00,,Overcast,80,2013-01-25 15:54:00
8:44 AM,64.4,50.0,59,30.10,6.0,ENE,13.8,20.7,0.00,Rain,Light Rain,70,2013-01-25 16:44:00
8:54 AM,64.0,50.7,62,30.11,6.0,ENE,11.5,29.9,0.00,,Drizzle,60,2013-01-25 16:54:00
9:10 AM,64.4,50.0,59,30.10,6.0,ENE,5.8,19.6,0.00,Rain,Light Rain,60,2013-01-25 17:10:00
9:54 AM,64.0,49.6,59,30.12,6.0,ENE,9.2,-,0.00,,Overcast,60,2013-01-25 17:54:00
10:00 AM,-9999,-9999,N/A,-9999,-9999.0,North,-9999.0,-,N/A,,Unknown,0,2013-01-25 18:00:00
10:54 AM,60.1,54.0,80,30.13,5.0,ENE,9.2,25.3,0.00,Rain,Light Rain,60,2013-01-25 18:54:00
11:15 AM,-9999,-9999,N/A,-9999,-9999.0,North,-9999.0,-,N/A,,Unknown,0,2013-01-25 19:15:00
11:16 AM,59.0,57.2,94,30.12,2.5,ENE,6.9,-,0.00,Rain,Light Rain,60,2013-01-25 19:16:00
11:54 AM,57.9,57.9,100,30.10,4.0,NNE,8.1,-,0.03,,Overcast,30,2013-01-25 19:54:00
12:54 PM,60.1,57.9,93,30.04,7.0,NE,10.4,17.3,0.00,,Overcast,50,2013-01-25 20:54:00
1:54 PM,62.1,59.0,90,30.03,-9999.0,ENE,9.2,-,N/A,,Overcast,60,2013-01-25 21:54:00
1:57 PM,62.6,59.0,88,30.03,7.0,ENE,8.1,-,N/A,,Overcast,60,2013-01-25 21:57:00
2:54 PM,63.0,55.0,75,30.03,7.0,NE,8.1,-,N/A,,Overcast,50,2013-01-25 22:54:00
3:03 PM,62.6,57.2,82,30.01,7.0,ENE,10.4,-,0.00,Rain,Light Rain,60,2013-01-25 23:03:00
3:54 PM,60.8,55.2,82,30.01,5.0,NE,6.9,-,0.02,Rain,Light Rain,50,2013-01-25 23:54:00
4:54 PM,61.9,55.4,79,30.00,3.0,East,6.9,-,0.04,Rain,Light Rain,80,2013-01-26 00:54:00
5:33 PM,60.8,55.4,82,30.00,7.0,NE,5.8,-,0.01,Rain,Light Rain,50,2013-01-26 01:33:00
5:54 PM,60.1,55.4,85,30.01,7.0,NE,5.8,-,0.11,Rain,Light Rain,50,2013-01-26 01:54:00
6:26 PM,60.8,57.2,88,30.00,7.0,North,4.6,-,0.00,,Overcast,10,2013-01-26 02:26:00
6:54 PM,59.0,59.0,100,30.01,7.0,North,4.6,-,0.01,,Overcast,360,2013-01-26 02:54:00
7:20 PM,59.0,59.0,100,30.00,6.0,NNW,6.9,-,0.00,Rain,Light Rain,340,2013-01-26 03:20:00
7:54 PM,56.5,54.3,92,30.00,7.0,NNW,4.6,-,0.02,Rain,Light Rain,330,2013-01-26 03:54:00
8:54 PM,59.0,57.2,94,29.99,7.0,NW,8.1,-,0.00,,Light Drizzle,310,2013-01-26 04:54:00
9:54 PM,60.1,55.9,86,30.00,6.0,NE,4.6,-,0.00,,Light Drizzle,40,2013-01-26 05:54:00
10:54 PM,56.8,54.3,91,29.99,7.0,Variable,5.8,-,0.00,,Light Drizzle,0,2013-01-26 06:54:00
11:54 PM,59.0,59.0,100,29.98,-9999.0,NE,9.2,-,N/A,,Overcast,40,2013-01-26 07:54:00